Wind_Speed
31 35 41 47 53 61 69 75 72 62 55 53 53 55 55 52 50 49 49 48 45 39 42 47 47 46 43 42 46 48 47 46 44 40 37 36 33 30 28 25 22 19 17 15 14 13 14 16 19 22 23 24 26 27 29 31 33 35 37 39 41 44 46 49 52 55 57 58 59 61 66 70 66 53 39 31 27 25 26 27 28 28 29 29 29 28 28 28
33 36 41 48 55 62 68 71 66 58 53 53 55 55 52 49 48 48 48 47 42 37 41 45 44 44 43 42 45 45 45 44 43 41 38 36 33 29 26 23 20 17 15 15 14 15 16 18 21 22 23 24 26 28 31 33 34 36 37 40 42 45 48 51 53 55 55 57 60 64 68 67 56 42 32 26 24 24 25 26 27 28 28 28 28 27 27 27
35 38 43 49 56 62 67 66 59 54 53 55 57 54 48 46 47 47 46 44 39 35 40 43 42 42 41 41 41 41 41 41 40 39 37 34 32 29 26 22 18 16 16 16 16 17 18 20 21 22 24 26 28 30 32 33 35 37 39 41 43 46 49 51 52 53 55 58 62 66 67 59 45 34 26 24 23 23 24 25 26 27 27 27 27 27 27 27
36 41 45 51 57 62 66 61 53 53 54 56 56 50 44 45 46 45 44 41 37 35 39 42 41 39 38 38 37 38 37 37 37 36 34 32 30 28 25 20 17 16 17 17 17 18 18 20 22 24 26 27 29 31 32 34 36 38 40 42 44 47 49 51 52 54 57 60 64 67 61 49 36 27 23 22 21 22 24 25 26 26 26 26 26 26 26 26
39 44 48 53 58 61 61 55 51 53 55 57 53 46 43 43 42 41 41 40 38 36 37 39 39 37 36 35 35 35 34 33 33 32 32 31 29 27 24 20 17 16 17 18 18 18 19 22 24 26 27 28 29 31 33 34 36 38 40 43 46 48 49 51 53 56 59 62 66 64 52 39 29 23 21 20 20 22 23 24 24 24 24 24 24 24 25 26
43 46 50 55 59 60 56 51 49 51 55 55 48 42 41 40 38 37 39 40 39 36 35 36 36 35 34 33 32 32 32 31 31 31 30 30 28 25 22 19 17 16 17 18 18 20 22 24 25 25 26 28 30 32 33 35 36 39 41 44 46 48 50 53 55 58 61 64 64 55 42 32 24 21 20 19 19 21 22 23 23 22 22 22 23 23 23 24
46 49 53 56 57 55 52 48 48 51 55 51 44 40 38 37 35 34 37 39 38 36 35 35 34 34 34 32 30 30 31 30 29 29 28 27 25 23 20 17 16 17 18 19 21 22 23 23 24 26 27 29 31 32 34 35 38 40 42 44 47 49 52 54 57 59 62 64 57 45 34 26 21 20 18 17 19 20 21 22 22 21 21 21 22 22 23 24
51 52 54 54 52 49 47 46 48 51 52 46 40 38 36 36 34 34 35 36 37 36 35 34 33 33 34 33 31 30 30 29 28 27 27 25 22 18 17 16 16 17 20 22 23 23 23 23 24 26 29 30 31 33 35 37 39 41 44 46 48 51 53 55 58 61 63 59 48 37 28 21 19 18 16 17 18 19 21 21 21 21 20 21 21 23 24 24
51 50 49 48 47 46 46 46 47 48 46 41 37 36 35 34 34 34 35 35 35 35 34 33 32 33 34 34 33 31 30 28 27 26 25 22 17 15 15 16 18 20 23 24 25 25 25 25 27 28 30 31 32 34 36 39 41 43 45 47 50 52 54 57 59 62 59 50 39 30 23 19 18 17 15 16 18 19 20 20 20 20 20 20 21 23 24 24
46 45 45 44 44 44 44 45 45 45 42 37 35 34 33 33 33 34 34 35 34 34 34 33 33 33 33 33 33 32 31 30 28 26 24 19 16 15 16 19 21 23 25 25 26 26 26 27 28 29 30 32 33 36 38 40 43 45 47 49 51 53 55 58 60 60 53 42 32 25 20 18 17 15 14 16 17 18 19 20 19 19 20 20 21 23 24 25
41 41 41 41 41 42 41 42 44 42 38 34 32 31 31 32 33 33 33 34 34 34 33 33 33 33 33 33 33 32 31 31 29 27 23 20 18 18 20 23 25 26 26 26 26 27 28 29 30 31 32 33 36 38 40 42 44 46 48 50 52 54 57 59 60 55 44 35 27 22 18 17 16 14 14 15 16 18 19 19 19 20 20 21 22 24 25 27
36 35 35 37 39 40 40 41 42 39 35 33 31 29 30 31 32 33 32 33 33 34 33 32 32 33 33 33 33 32 31 29 28 26 23 20 19 21 25 27 27 27 26 26 27 29 30 30 31 33 34 36 38 40 41 43 45 47 49 51 53 56 59 61 56 47 37 30 23 19 17 16 14 13 13 15 16 18 19 19 20 20 21 22 24 25 27 28
32 32 33 36 38 38 38 40 40 37 35 33 31 31 32 33 34 34 33 33 33 33 32 32 32 32 33 33 32 31 29 28 26 24 22 21 22 25 28 29 29 28 27 29 30 31 31 31 32 33 35 37 39 41 43 45 47 49 51 53 56 58 60 58 49 39 32 26 20 17 16 15 13 13 14 15 16 17 18 19 20 21 22 23 24 25 26 27
32 32 32 34 36 36 38 40 38 36 35 33 34 36 37 38 37 36 35 34 33 31 31 32 32 32 32 31 29 28 27 25 23 21 21 23 26 28 29 31 31 30 30 31 30 30 30 31 32 33 36 38 41 43 45 47 49 51 53 55 57 59 57 51 41 33 27 22 18 16 15 14 13 13 14 16 17 18 18 19 20 21 22 22 23 24 26 27
34 33 34 35 36 37 39 38 37 36 36 34 35 37 38 39 38 36 35 33 32 30 30 31 31 30 30 29 27 26 25 22 20 21 24 27 29 30 31 31 31 31 30 29 28 28 29 31 32 35 38 40 43 45 47 49 51 53 55 57 58 56 51 42 35 29 24 20 17 15 15 14 13 14 15 17 18 18 18 19 20 21 21 22 23 24 25 26
35 35 36 37 37 38 38 36 36 37 35 35 37 38 37 37 37 35 33 31 30 30 29 30 30 29 28 27 26 25 24 21 21 25 29 31 32 31 30 28 28 28 27 27 27 29 31 33 35 37 40 42 45 47 49 51 53 54 56 57 56 51 43 36 30 26 21 18 16 15 15 14 14 14 15 17 18 18 19 19 20 21 21 21 23 24 25 26
35 34 35 36 37 39 38 37 37 37 35 35 37 37 36 35 35 34 32 31 30 29 30 29 28 27 26 25 24 24 24 23 24 27 29 31 31 29 28 26 27 27 28 29 31 32 34 35 37 39 42 44 46 49 51 53 54 56 57 55 51 43 36 31 27 23 19 17 16 16 16 15 14 13 15 17 18 19 19 20 21 21 21 21 23 24 25 25
34 34 34 35 36 37 37 38 37 36 36 35 34 34 33 32 31 31 30 30 30 30 29 29 27 25 23 21 21 23 24 25 27 28 28 29 29 30 30 31 31 31 32 33 34 35 35 37 39 41 43 46 48 51 53 54 56 56 55 50 44 37 32 28 24 21 18 17 17 17 17 16 14 14 15 17 18 19 19 20 21 22 22 22 23 24 25 25
33 35 34 33 34 35 36 36 36 35 35 33 32 31 30 30 30 30 30 30 30 30 29 29 27 24 22 21 22 23 23 25 27 28 29 30 31 32 33 34 34 33 33 33 34 34 36 38 40 42 45 48 50 52 54 55 55 54 50 44 38 32 28 25 22 20 18 18 18 18 18 16 15 15 16 17 19 20 20 20 21 22 22 23 23 24 24 25
32 34 32 31 31 31 33 34 33 32 30 29 29 29 29 30 30 30 30 30 29 29 28 27 25 24 24 25 25 25 25 26 26 27 29 31 32 33 33 33 32 32 32 32 33 35 37 39 41 44 47 50 52 54 55 54 53 49 44 38 33 29 26 23 21 19 18 18 19 19 19 18 17 16 17 19 20 20 20 20 21 22 23 23 23 23 24 24
31 32 31 30 29 28 29 30 30 30 29 29 28 28 29 29 30 29 29 28 27 27 26 25 24 23 24 25 25 25 25 27 28 30 32 33 33 32 31 30 31 31 31 33 34 37 39 41 44 46 49 52 54 54 53 51 48 43 38 33 30 27 24 22 20 19 19 19 20 20 21 20 19 18 19 20 21 21 20 20 21 22 23 23 23 23 24 23
30 31 32 31 31 30 29 29 29 29 29 30 29 29 29 29 29 28 28 28 27 27 25 23 23 23 24 24 24 25 27 30 32 33 33 33 32 31 30 30 31 32 33 34 36 38 41 43 46 49 52 53 54 52 50 46 42 38 34 30 28 25 23 21 20 20 20 20 21 22 22 22 21 20 20 21 21 21 20 20 21 22 23 23 23 23 23 22
28 30 32 32 32 32 31 31 31 30 29 30 29 29 29 28 28 28 27 27 26 25 23 22 23 25 26 27 27 28 30 32 33 32 32 31 31 31 31 32 32 34 35 37 39 41 43 46 49 51 53 53 52 48 44 41 37 34 31 28 26 24 22 21 20 20 21 22 22 23 24 23 23 22 22 22 22 21 20 20 21 22 23 23 23 23 24 22
26 27 28 29 30 29 28 29 30 30 29 28 28 28 29 28 28 27 26 24 22 23 24 24 26 28 29 30 30 31 32 33 32 31 31 32 32 32 32 33 34 36 37 39 41 43 45 48 51 53 53 51 47 43 39 37 34 32 29 27 25 23 22 21 21 21 22 23 24 25 25 25 24 23 23 23 23 22 21 21 22 23 23 22 23 24 24 23
25 27 27 25 27 28 27 27 28 28 28 28 28 28 28 27 27 26 24 22 24 27 28 29 30 31 32 32 32 31 32 32 32 32 32 33 33 33 33 34 36 38 39 41 43 45 48 50 52 52 51 48 43 39 37 35 32 30 28 26 24 23 21 21 21 22 24 24 25 26 27 27 26 25 25 25 24 23 22 22 23 23 22 22 23 24 24 23
23 26 28 26 25 26 26 26 26 27 28 27 27 27 27 26 26 26 27 27 29 31 33 34 34 35 35 35 34 34 34 35 35 35 34 34 34 34 35 36 38 40 41 43 45 48 50 52 52 50 48 45 40 37 35 33 31 29 27 25 23 22 21 22 23 24 25 25 26 27 28 29 28 27 27 26 24 23 23 23 23 23 22 22 23 24 23 23
24 24 27 29 28 27 26 27 27 26 25 24 24 24 24 25 26 27 29 32 33 35 36 37 37 38 39 39 40 40 39 39 38 37 36 35 35 36 37 38 40 41 43 45 48 49 51 51 50 48 47 44 40 36 34 32 30 28 26 24 23 22 22 23 24 25 26 26 27 27 28 29 29 29 28 27 25 24 24 24 24 24 23 22 23 24 24 24
28 25 26 27 25 25 26 26 26 25 25 26 26 25 26 28 30 31 32 34 36 37 38 39 39 39 39 40 41 41 41 41 39 38 37 37 37 38 39 41 42 44 46 47 49 50 50 49 48 47 46 43 38 35 33 31 29 27 24 23 23 23 23 24 26 26 26 26 26 27 27 28 29 29 28 27 25 24 25 26 26 25 23 23 24 25 25 25
31 29 30 29 26 25 26 26 27 27 28 30 30 30 31 32 33 34 34 34 35 35 36 36 37 37 36 37 37 38 38 38 38 37 37 38 38 40 41 43 45 46 48 49 49 49 48 47 47 47 45 40 36 34 32 30 28 26 24 23 23 24 25 26 26 26 25 25 26 26 26 27 29 29 28 27 25 25 27 27 27 26 24 24 24 25 26 26
31 31 33 34 33 32 32 32 33 32 32 31 29 29 30 31 32 33 33 32 32 32 32 32 33 33 33 34 35 36 36 37 37 38 39 39 40 42 44 45 47 48 48 48 48 48 47 46 46 46 43 38 35 33 31 29 27 25 24 24 24 25 26 26 26 25 25 26 26 27 27 28 29 29 28 26 25 26 28 28 28 27 25 25 25 26 27 28
35 32 33 35 36 37 37 37 38 37 36 34 32 30 30 30 31 31 32 32 32 32 31 32 32 33 34 35 35 36 37 37 39 40 41 42 43 45 46 47 47 47 48 48 48 47 46 45 45 44 41 36 34 33 31 28 27 25 25 25 25 26 26 27 26 25 25 26 28 28 29 29 29 29 28 27 27 27 29 29 29 28 27 26 27 27 28 29
40 38 37 36 37 39 40 40 40 40 40 39 38 36 34 33 32 33 33 34 34 34 34 34 34 35 36 37 38 38 39 39 41 42 43 44 46 47 46 47 47 47 48 48 48 46 45 45 45 44 40 37 34 33 30 28 27 26 26 26 26 27 27 28 27 26 26 27 28 29 29 29 29 29 28 28 28 29 30 30 30 29 28 28 29 30 31 32
41 42 42 41 39 39 40 40 40 40 40 40 39 38 38 36 34 34 34 35 35 35 36 36 37 38 38 39 40 41 42 43 43 44 45 46 47 47 47 47 48 48 48 48 46 44 44 44 45 43 40 37 35 33 31 29 27 27 26 27 27 28 29 29 29 28 28 28 29 29 29 29 29 29 29 29 30 30 31 31 31 30 29 29 30 32 33 34
43 44 44 44 44 43 42 42 42 41 41 40 39 39 39 38 37 37 37 37 37 37 38 39 39 41 41 42 44 44 45 46 46 46 47 48 47 48 48 48 48 48 48 47 45 43 43 44 45 43 40 37 35 33 31 30 28 28 28 28 29 29 30 30 30 30 30 29 30 30 30 30 30 31 31 31 31 31 31 31 32 32 31 31 32 34 35 36
45 45 46 46 46 46 46 45 45 45 44 43 42 41 40 40 40 40 41 41 41 41 42 42 43 44 44 45 47 47 47 48 49 48 49 49 49 50 50 49 49 49 48 45 43 43 45 46 45 43 39 38 36 34 32 31 30 29 29 29 30 31 31 31 31 31 31 31 31 31 31 31 31 32 33 33 32 32 31 32 33 33 32 32 34 36 37 38
47 47 47 47 48 48 48 48 48 48 48 47 47 46 44 44 44 43 44 44 45 44 45 46 45 46 47 47 47 49 50 50 50 51 51 51 51 51 50 50 50 49 46 44 44 45 46 45 44 41 39 38 37 35 34 32 31 31 31 31 32 32 32 32 32 32 32 32 32 32 32 32 32 33 34 34 34 33 33 33 34 34 35 34 35 38 39 39
50 49 49 49 49 50 49 49 50 50 49 49 49 48 47 47 47 46 46 46 47 46 47 49 49 49 50 50 49 50 52 52 52 52 52 51 51 51 51 50 48 46 45 45 46 46 45 43 42 41 40 39 38 36 35 33 33 32 32 33 33 34 34 34 34 33 33 33 34 34 33 32 32 33 34 34 34 35 35 35 36 37 37 37 38 39 40 41
52 53 52 51 51 51 51 51 51 51 50 49 49 49 48 48 49 49 48 49 51 50 49 51 52 51 52 52 52 52 52 52 52 52 52 51 51 51 50 49 47 47 47 47 46 45 44 43 43 42 41 40 39 38 36 35 34 34 34 35 35 36 36 36 35 35 34 34 35 35 34 33 33 33 33 33 35 35 36 36 38 39 40 40 41 42 42 42
52 54 55 55 54 54 54 54 53 52 52 51 51 51 49 48 49 50 50 50 52 53 53 54 54 54 53 53 52 51 51 51 51 51 51 51 51 50 49 48 48 48 48 47 46 45 44 44 43 43 42 41 40 38 37 36 35 35 35 36 37 38 38 38 37 36 35 35 35 36 36 35 35 34 32 33 35 36 37 37 39 40 41 42 42 43 43 43
52 52 54 56 57 57 57 56 56 55 54 53 53 53 52 50 50 51 52 52 53 53 53 54 55 54 53 52 50 50 50 50 50 51 51 52 52 51 50 49 48 48 47 47 46 46 45 45 44 44 43 42 40 40 38 37 37 36 37 37 38 39 40 40 39 37 36 36 36 38 37 37 37 36 34 35 36 37 38 39 39 41 42 43 43 43 44 45
55 54 53 54 56 58 59 59 59 59 58 57 56 56 56 55 53 52 53 53 53 52 51 51 51 51 51 51 50 51 51 52 52 53 53 53 52 52 51 50 49 49 48 48 47 47 47 47 46 46 45 43 42 41 39 38 38 38 38 38 39 41 42 42 41 40 38 37 37 39 40 39 38 38 37 38 39 39 39 40 41 42 43 43 44 44 45 46
53 55 56 56 56 56 57 58 60 61 61 60 60 60 60 59 58 57 57 55 54 53 51 51 51 51 51 52 53 53 54 55 55 55 55 54 53 53 52 52 51 50 50 49 49 49 49 49 49 48 47 45 43 42 40 39 39 38 39 39 40 41 42 43 43 42 41 40 39 40 43 42 39 40 41 42 42 42 42 43 43 44 45 45 45 46 46 46
42 46 50 54 56 58 58 58 58 59 59 59 60 60 60 60 60 61 61 61 60 59 58 57 56 55 55 56 56 56 57 57 57 56 56 56 55 55 54 53 52 52 52 52 52 52 52 52 51 50 48 46 44 43 42 41 40 40 40 40 40 41 42 43 44 44 43 42 41 42 46 43 40 41 43 43 45 44 44 45 45 45 47 47 47 48 48 48
35 37 40 44 48 52 55 57 58 59 58 58 58 58 58 58 58 60 61 62 62 62 62 61 61 60 59 59 59 59 59 58 58 58 58 58 57 56 55 55 54 54 55 55 55 56 55 54 53 51 49 47 45 43 42 42 41 41 41 41 41 41 42 43 43 44 44 44 43 45 47 46 43 42 43 44 46 46 46 47 47 47 48 48 49 49 50 51
34 34 36 38 40 43 47 50 53 55 56 56 57 57 57 56 55 55 57 58 59 60 61 61 62 61 61 60 60 60 60 60 61 60 59 58 58 57 57 58 58 59 59 60 60 58 56 55 53 51 49 48 45 44 43 42 42 42 42 42 41 42 42 42 43 44 44 44 45 47 47 47 47 45 42 44 46 47 47 48 48 49 49 50 50 51 51 52
35 35 35 36 38 40 42 45 48 50 51 52 54 54 54 54 54 54 55 56 57 58 59 60 60 60 60 61 61 61 61 61 61 61 60 59 60 61 61 62 63 63 64 63 62 59 57 55 53 51 50 47 45 44 43 42 42 43 43 43 42 42 42 43 43 44 44 43 47 49 46 48 52 48 43 44 47 48 50 50 51 51 51 51 51 52 52 53
37 38 37 37 38 39 40 43 46 47 48 49 50 51 52 53 54 55 55 56 57 57 58 59 59 60 60 61 61 61 61 61 61 62 63 64 65 65 66 67 67 67 67 65 62 59 57 55 53 51 49 46 45 44 43 43 43 43 44 44 44 43 43 43 44 45 44 43 48 51 47 48 54 52 47 46 47 48 50 51 52 51 50 50 51 52 53 53
38 40 40 40 40 41 41 43 45 47 48 49 49 50 51 53 54 55 55 56 57 57 58 59 60 60 61 62 62 62 63 64 65 67 68 68 69 69 70 71 71 70 68 65 62 59 56 54 53 50 47 45 43 43 43 43 43 44 45 45 45 44 44 45 45 46 44 43 47 49 47 50 53 51 49 49 48 48 49 50 51 51 51 51 52 53 54 55
37 39 40 42 43 43 44 44 46 48 49 50 51 52 52 54 55 56 56 57 58 59 59 60 61 62 63 63 64 65 66 67 68 69 70 71 72 73 73 72 71 69 65 61 58 56 53 51 51 48 45 44 43 42 42 43 43 44 46 47 46 46 46 46 47 47 45 45 47 47 46 50 52 49 48 50 50 49 49 50 51 52 52 53 54 55 57 57
33 36 39 41 43 44 45 47 48 49 51 52 53 54 55 56 57 58 59 60 61 62 62 63 64 64 66 66 67 68 69 70 72 73 74 74 73 71 68 65 63 60 57 54 53 52 50 49 48 46 44 44 43 42 41 42 42 43 47 49 48 47 48 48 49 48 47 47 48 47 48 52 52 49 49 51 51 51 51 52 52 53 54 55 57 58 59 60
28 31 34 37 41 43 45 47 48 50 51 52 54 55 56 58 59 60 61 62 63 64 65 66 67 67 68 70 71 72 73 73 73 71 69 66 62 59 56 53 52 50 50 49 49 49 48 46 46 45 42 43 45 43 42 42 41 42 47 50 49 49 50 50 50 50 50 49 49 50 51 53 53 51 52 53 53 54 54 55 55 56 57 58 59 61 61 62
25 26 28 31 34 37 40 43 46 48 51 52 54 56 57 59 60 60 61 62 63 64 65 66 67 68 69 69 70 69 68 65 62 58 55 51 49 46 44 44 44 44 45 45 46 46 46 45 45 43 41 43 46 45 43 41 40 43 48 50 50 51 51 51 52 52 52 51 51 52 54 55 55 54 55 56 56 56 57 57 59 60 61 61 62 63 64 65
Wind_Direction
163 169 171 169 168 168 168 170 171 169 165 167 168 166 163 163 166 167 167 167 165 171 179 183 187 189 187 184 183 184 187 190 192 193 195 197 201 207 208 203 200 205 214 222 234 249 258 258 259 267 274 274 273 273 275 280 284 288 292 294 297 298 300 301 303 305 307 309 312 316 319 323 323 320 318 318 320 327 333 335 335 335 336 338 339 342 344 346
159 164 166 165 165 166 166 168 168 165 165 168 167 163 161 164 167 167 167 167 166 172 179 181 184 188 188 186 185 185 187 191 194 198 200 200 205 208 203 199 204 213 222 233 245 257 262 262 263 268 269 267 269 272 277 282 285 289 292 295 297 299 300 301 303 306 308 311 314 318 322 323 321 318 317 318 323 330 334 335 335 336 337 338 340 342 345 347
155 159 162 162 162 164 165 165 163 163 166 167 163 160 162 165 167 167 168 168 168 175 180 181 183 186 187 187 187 187 189 192 195 199 203 205 208 206 200 201 211 221 231 242 250 258 264 264 263 262 262 264 270 274 279 283 286 289 293 295 297 299 301 302 305 308 311 314 317 321 323 321 319 317 316 318 325 333 335 335 335 336 337 339 341 343 345 346
152 155 158 158 160 163 163 162 161 164 166 164 159 159 163 165 166 167 169 171 174 177 180 182 185 185 185 187 189 191 192 194 197 201 203 204 203 201 201 208 220 230 238 247 255 259 260 258 257 260 265 270 274 277 281 284 287 290 293 296 298 300 303 305 307 310 313 317 320 322 322 319 317 316 316 319 328 334 335 335 336 337 339 341 341 342 344 345
148 152 154 155 156 158 158 158 161 165 164 160 158 159 161 163 166 169 171 175 178 179 180 184 187 185 184 186 190 192 193 193 195 198 199 198 199 200 205 215 227 237 244 251 257 256 253 255 260 266 272 275 278 280 283 286 289 292 294 297 298 301 303 306 309 312 315 318 321 322 320 317 315 314 315 322 331 334 335 336 337 338 340 341 340 341 343 343
144 148 149 149 149 151 153 157 163 164 160 157 157 157 158 160 164 170 175 178 180 181 183 185 185 183 183 185 187 190 190 190 191 193 195 196 199 204 213 222 231 240 247 248 248 249 253 261 267 270 273 276 280 283 286 289 291 294 296 297 299 301 304 307 311 314 317 320 321 320 317 315 314 313 316 325 333 334 335 335 336 338 339 339 339 341 343 343
140 143 144 146 147 150 153 158 163 161 156 156 156 155 156 158 164 171 177 180 183 184 186 187 185 182 182 181 182 184 186 187 189 193 196 200 205 211 221 230 235 237 239 240 244 253 262 267 269 271 274 278 282 285 289 291 292 295 297 299 301 303 306 310 313 316 318 320 320 318 315 313 312 312 317 328 333 333 334 334 336 338 339 339 339 341 342 342
138 141 144 146 148 150 153 158 159 157 155 155 154 153 156 160 166 174 178 183 186 187 189 189 187 186 185 182 180 182 184 188 192 197 202 207 213 219 229 236 236 234 234 240 252 262 266 267 269 273 277 281 285 288 290 292 294 296 298 301 304 307 309 312 315 317 319 320 318 316 314 311 310 312 319 330 332 332 333 334 336 337 338 338 338 340 341 341
140 142 143 145 147 151 155 156 154 154 155 154 152 154 158 163 169 175 181 186 187 188 189 190 190 190 189 187 186 187 191 195 199 204 208 212 217 226 234 232 231 236 242 250 260 265 267 269 272 276 280 284 288 291 293 294 295 297 300 303 306 310 312 314 316 318 320 319 316 314 311 310 309 311 321 330 331 331 333 334 335 336 336 335 335 337 338 338
137 140 143 147 151 154 154 152 151 153 154 152 153 155 160 165 172 178 184 187 187 187 187 189 191 191 190 191 193 196 200 203 206 209 210 214 222 231 232 229 233 241 249 257 264 268 271 273 276 281 285 288 291 293 294 295 296 298 303 306 309 312 313 315 317 319 319 317 314 311 309 308 307 311 323 328 329 330 331 333 333 332 332 332 331 332 334 336
136 142 148 151 152 151 149 151 154 155 154 152 154 157 162 169 176 182 186 188 189 188 189 190 191 192 192 194 198 202 205 208 209 211 213 219 228 231 229 232 240 247 254 261 267 271 274 277 282 285 288 290 291 292 293 296 299 302 305 309 312 314 315 317 319 319 317 314 312 309 307 306 306 312 322 326 327 327 331 332 330 328 328 328 328 330 334 336
142 145 148 149 149 149 150 152 155 156 155 154 157 162 167 174 181 185 188 189 188 189 190 192 193 194 195 198 201 204 206 210 213 215 217 221 227 229 229 235 244 251 258 263 268 272 275 278 281 283 286 289 291 293 295 299 303 306 308 311 313 315 317 318 318 317 315 311 308 306 306 304 304 312 319 322 324 326 330 331 328 326 326 327 329 332 334 334
140 141 144 147 148 151 154 156 156 157 157 157 162 169 174 180 184 187 188 188 188 189 192 194 196 197 199 202 203 205 208 211 214 217 218 220 225 231 235 242 249 254 259 262 265 268 271 274 277 282 286 290 293 296 299 302 306 309 311 312 314 316 317 317 316 315 312 308 305 305 303 301 301 308 314 317 322 324 329 330 328 326 325 326 329 331 331 331
137 141 145 147 150 154 157 159 160 161 159 160 167 172 176 180 183 185 187 188 189 191 193 195 198 199 201 202 202 204 205 205 208 211 217 223 228 234 240 245 249 252 255 258 261 265 269 274 280 286 290 294 298 300 302 304 308 310 313 314 315 316 316 315 314 312 308 304 303 303 300 297 298 305 312 317 321 323 327 329 327 323 321 322 325 326 327 328
142 146 147 150 153 156 159 162 165 166 164 165 171 176 178 179 181 183 184 187 189 191 192 194 196 196 198 198 196 197 198 198 207 218 226 230 232 236 240 242 245 248 251 256 261 267 274 281 288 293 297 299 302 304 305 307 309 312 314 315 316 315 314 313 312 308 304 301 301 300 295 292 295 304 313 317 319 320 323 325 323 319 316 318 320 322 324 327
149 151 151 154 157 159 162 165 169 171 171 171 175 179 180 181 183 183 183 185 186 187 189 190 192 193 194 195 196 198 200 204 216 226 231 232 231 232 233 236 240 246 253 261 270 278 285 291 296 299 302 303 304 306 307 309 311 312 314 315 315 313 312 311 308 303 299 297 298 295 289 287 293 307 315 315 314 314 316 319 319 317 314 316 318 320 323 327
153 152 153 157 160 161 164 167 172 174 175 176 179 181 183 185 186 187 187 187 186 187 188 189 192 194 196 199 203 204 205 210 218 224 228 229 229 231 235 242 250 258 267 274 281 285 290 295 298 301 303 305 306 307 308 310 312 313 314 314 313 311 310 307 303 299 295 294 294 289 284 284 293 308 313 310 309 309 310 313 317 316 315 315 317 319 322 328
158 155 155 158 159 161 165 167 171 173 176 180 182 184 185 186 187 189 189 189 189 190 191 192 192 194 197 201 207 209 210 215 223 227 231 233 237 243 249 255 262 267 272 276 280 285 289 294 298 301 304 306 307 308 310 311 312 314 314 313 310 309 307 303 299 295 292 291 289 284 281 283 293 306 310 308 307 306 305 308 313 314 314 314 316 319 323 329
162 162 161 161 160 162 165 169 172 175 178 182 184 186 186 187 187 188 189 189 190 191 193 194 193 193 198 205 212 217 221 225 230 235 239 244 249 252 255 257 260 264 268 275 281 287 293 297 301 304 307 308 309 310 311 312 313 313 312 310 307 306 303 299 295 291 289 287 286 283 280 281 289 300 307 310 307 304 301 303 308 311 312 312 315 319 324 329
165 169 170 170 168 166 168 172 177 180 182 184 185 186 186 186 187 188 189 190 191 194 195 194 194 197 204 211 216 221 226 230 235 240 243 246 248 249 252 255 260 265 273 281 288 293 298 301 304 307 309 311 311 312 313 313 313 311 309 307 304 302 299 295 292 288 287 285 284 282 279 280 286 295 305 310 308 303 300 300 304 307 309 311 314 319 323 327
167 173 178 181 181 180 177 177 180 183 186 188 189 190 190 190 191 193 195 197 198 198 197 195 198 204 210 215 220 226 232 237 239 240 240 242 244 248 254 260 266 274 282 288 293 297 301 304 307 309 310 311 312 313 313 312 311 308 306 303 300 297 295 292 288 286 286 284 282 280 278 279 284 292 303 309 309 304 299 297 300 304 306 309 313 317 321 324
171 174 178 183 187 189 188 186 186 185 186 189 192 194 195 196 197 198 200 201 200 199 199 200 207 215 221 226 232 236 238 239 237 236 237 241 247 254 261 268 275 282 288 293 296 300 303 306 307 309 310 312 313 313 312 310 308 305 302 299 296 293 291 288 286 284 285 284 281 278 277 278 282 290 300 306 308 303 297 295 297 301 303 306 311 315 317 320
175 176 179 183 186 188 189 189 188 187 186 189 192 193 194 196 197 197 199 201 201 203 205 211 219 227 231 234 236 234 232 231 231 236 242 247 255 262 268 275 280 286 290 294 298 301 304 305 306 308 310 312 313 311 309 307 304 301 298 295 292 289 287 285 284 284 284 283 280 278 277 278 282 288 297 303 306 302 295 293 294 297 300 303 310 313 314 316
181 181 181 185 188 190 193 194 193 192 193 195 196 196 197 198 200 202 203 205 209 215 219 222 225 227 227 227 227 227 228 231 237 244 251 257 263 269 274 280 284 288 292 295 299 301 303 304 305 307 309 312 311 308 306 303 301 298 295 291 288 285 283 282 282 283 284 282 280 279 278 279 282 287 294 301 303 300 293 290 290 293 297 302 308 311 311 312
190 191 186 188 192 195 199 201 202 203 204 207 209 209 209 209 209 209 209 214 220 222 222 221 222 221 221 223 227 231 236 242 248 254 260 265 270 275 279 283 287 290 293 296 299 300 302 303 305 307 310 312 309 305 303 300 297 294 291 287 284 281 279 280 281 283 283 281 280 279 278 279 283 286 291 297 298 295 290 288 288 290 294 300 305 307 308 309
194 199 198 198 199 200 202 202 205 207 207 209 212 214 215 216 215 211 209 214 219 220 220 221 222 224 226 231 238 243 248 253 257 260 265 269 273 277 282 285 288 291 293 295 297 299 300 302 305 308 312 312 307 302 300 297 294 290 286 283 280 278 277 278 281 282 282 280 279 278 277 278 281 285 288 292 293 290 287 286 286 288 292 297 302 304 305 306
187 195 205 209 209 210 211 211 212 213 214 216 218 218 216 215 217 217 215 217 219 221 223 226 228 231 233 238 243 247 252 256 259 263 267 271 275 279 283 286 289 292 294 296 297 298 301 304 306 309 312 310 304 300 297 294 291 286 281 278 277 276 276 278 280 280 280 279 277 277 276 277 279 281 285 288 288 285 284 284 285 287 290 295 300 303 304 304
184 185 194 201 208 213 214 217 217 217 218 219 220 221 219 216 218 222 223 223 226 227 229 232 235 237 239 242 245 248 251 255 259 264 268 273 277 281 285 287 290 293 295 296 298 300 302 305 307 310 311 308 302 297 295 291 286 281 276 274 274 275 277 279 280 278 277 276 274 275 276 276 277 279 282 283 283 282 282 283 284 286 288 292 298 301 302 302
187 186 187 186 188 193 199 204 205 206 209 210 211 214 217 219 221 224 227 228 230 232 234 236 238 241 243 246 248 251 254 258 262 267 271 275 280 283 286 289 291 294 295 296 298 301 304 306 307 309 310 305 299 295 292 288 282 276 272 272 272 275 276 278 278 276 275 273 273 273 274 275 275 276 278 279 279 280 282 282 283 284 286 289 293 297 298 299
191 188 189 192 191 189 192 197 200 203 205 205 206 209 212 217 219 223 227 229 232 235 237 240 242 245 248 251 255 258 261 265 268 271 274 278 281 285 288 290 292 294 295 297 299 302 304 304 306 308 308 303 298 294 290 283 277 272 270 270 272 274 276 276 275 274 272 272 272 272 273 273 273 274 274 274 276 278 280 280 280 282 284 286 288 291 294 295
201 197 193 194 196 195 196 200 203 207 209 209 212 215 217 220 221 224 228 231 235 239 242 247 250 253 255 258 260 263 266 269 272 274 277 281 283 286 289 290 291 294 296 297 300 301 302 302 305 307 307 304 299 294 288 280 273 269 269 270 272 274 276 275 274 272 270 270 271 271 271 271 271 272 272 273 274 276 277 278 278 281 283 284 284 286 288 291
209 210 206 201 200 200 202 205 208 210 213 215 218 222 226 228 229 231 234 236 239 244 247 251 255 257 260 262 264 266 269 272 275 277 279 283 285 285 288 290 291 293 295 297 298 299 299 301 304 306 307 306 301 293 286 277 270 268 268 269 272 274 275 274 272 271 269 270 271 271 271 270 270 270 272 273 274 274 274 275 277 280 283 284 284 284 286 288
212 214 215 215 213 211 210 211 213 215 217 219 222 226 230 233 236 238 241 241 243 248 251 253 257 261 263 266 268 269 272 274 278 279 279 282 285 286 287 289 290 292 294 295 296 296 298 300 303 305 306 307 303 293 284 276 269 267 267 268 271 273 273 272 272 271 271 271 271 272 272 271 270 270 271 271 273 273 273 274 276 280 283 284 284 284 285 287
214 216 218 221 223 223 222 220 221 222 224 226 229 231 233 238 242 244 247 248 250 253 256 259 262 264 266 269 270 271 274 276 278 280 280 281 284 286 287 288 290 292 293 293 293 295 297 300 302 303 305 307 304 294 284 276 269 266 266 267 268 270 270 270 270 271 271 271 271 271 272 271 271 271 271 271 272 272 272 274 276 280 283 284 284 284 285 286
217 218 220 222 224 227 229 229 230 231 233 235 237 239 241 245 248 251 252 254 257 259 262 265 267 268 269 270 272 272 274 276 277 278 280 282 283 285 286 287 289 290 291 291 292 295 297 299 301 302 304 306 304 296 285 276 269 266 265 265 266 267 268 268 268 269 270 271 270 270 270 271 272 272 272 272 272 272 272 273 275 279 282 284 285 285 286 286
222 222 223 224 225 227 229 231 234 236 237 240 242 245 248 251 254 257 258 260 262 264 266 268 270 271 271 272 273 274 274 276 278 278 280 282 283 284 285 286 286 287 288 289 292 295 297 298 300 301 304 305 303 296 286 275 269 267 265 264 264 265 266 266 266 267 268 270 270 270 269 270 271 272 272 273 273 274 274 274 275 277 280 282 283 285 286 287
226 227 228 228 228 229 230 232 234 236 238 241 244 247 250 253 256 259 262 264 265 267 268 269 270 272 273 273 274 275 276 276 277 278 279 280 281 282 283 284 284 285 286 289 292 295 296 298 299 301 303 304 302 295 285 275 270 267 266 264 263 264 265 265 265 266 267 269 270 271 270 269 270 270 272 273 274 275 276 277 278 279 280 282 283 284 285 286
230 230 232 233 233 233 234 236 238 239 240 243 246 248 251 254 257 260 262 265 267 266 267 268 270 272 272 274 274 275 276 275 276 276 277 278 279 279 280 282 283 284 286 290 292 294 295 297 299 301 302 301 299 293 284 275 270 268 267 265 263 263 264 265 266 266 267 269 270 271 271 271 271 270 271 273 274 276 277 278 279 280 281 283 284 284 285 286
233 233 234 235 236 237 238 239 241 243 244 246 248 250 252 255 259 262 263 266 267 266 266 267 269 271 271 272 272 273 272 273 273 274 276 277 278 279 279 280 281 284 287 289 291 292 294 296 298 300 300 298 295 290 283 275 271 269 268 266 264 263 264 266 266 266 267 268 270 271 272 272 273 272 273 274 276 277 278 278 279 280 281 282 283 285 286 287
236 236 237 237 238 239 241 242 244 245 247 249 250 252 253 255 259 261 262 264 265 265 265 266 267 268 268 267 268 268 269 271 273 274 276 277 278 279 279 280 282 285 287 288 290 291 293 295 297 298 298 296 292 287 281 274 271 269 268 267 265 264 265 266 267 267 267 268 269 271 272 272 273 275 276 276 276 278 279 280 280 280 280 282 284 285 286 287
239 239 240 240 240 241 242 243 245 246 248 250 251 253 253 254 256 258 259 260 260 260 261 261 262 263 263 264 265 267 269 271 273 275 275 276 277 277 278 279 282 284 286 288 289 291 292 294 295 296 296 294 290 285 278 272 270 269 268 267 266 265 265 266 268 268 269 269 270 271 271 271 274 277 278 277 277 278 279 280 280 281 282 283 285 287 288 289
243 242 242 243 243 244 244 244 245 247 248 249 251 252 253 254 254 254 255 256 257 258 259 260 261 262 263 264 267 269 270 271 272 274 275 275 276 276 278 280 281 283 285 287 289 290 292 293 293 294 293 291 289 283 276 270 268 268 268 268 268 267 267 267 268 269 269 270 271 272 271 271 274 277 278 278 278 279 280 280 281 283 284 285 286 288 288 289
247 246 245 245 245 246 246 246 246 247 247 248 250 251 252 253 253 253 254 255 257 258 261 263 264 265 266 267 268 270 271 272 273 273 275 276 276 277 278 280 281 282 284 286 288 290 291 291 291 291 290 288 286 280 274 269 267 267 267 268 269 268 268 269 269 270 271 271 272 272 272 272 274 275 277 279 280 281 282 282 283 284 285 286 287 288 288 288
250 250 249 249 248 248 247 247 247 248 248 249 250 251 251 252 252 253 254 255 256 258 260 263 265 266 267 268 269 270 270 271 272 273 274 275 276 277 278 279 281 282 284 285 287 288 289 288 288 287 286 285 282 277 272 269 268 268 267 268 269 269 270 270 270 271 271 272 272 272 273 275 274 274 276 278 279 281 282 282 283 284 284 285 286 287 287 287
254 253 252 252 253 252 251 249 248 248 249 249 249 250 251 252 253 254 254 255 257 258 260 262 264 266 267 268 269 270 270 270 271 272 273 274 276 277 278 279 281 282 284 285 286 287 286 285 284 283 282 281 278 273 270 268 268 269 268 268 269 270 270 270 270 271 272 273 273 272 274 276 275 274 277 278 279 280 281 282 283 283 284 285 286 286 286 287
258 258 257 256 256 256 256 253 250 249 248 248 248 250 251 252 254 255 256 257 258 260 261 262 264 265 266 267 268 269 269 270 271 272 273 275 276 277 278 279 281 282 283 284 284 284 283 281 280 279 278 277 274 270 268 267 268 269 269 269 269 270 270 270 270 271 272 273 273 274 276 278 277 278 280 280 280 282 283 283 284 284 285 286 286 286 286 286
259 260 260 260 260 259 258 256 253 251 250 249 250 251 252 252 254 256 257 258 259 260 261 262 263 264 265 266 267 268 269 270 272 273 274 275 276 277 278 280 281 282 283 283 282 281 279 277 276 274 272 271 270 269 267 267 268 270 270 270 270 270 270 271 271 271 273 274 273 275 279 278 278 281 284 283 282 283 284 285 285 286 287 287 287 287 286 286
259 259 260 261 261 261 260 258 256 255 254 254 255 254 254 254 255 256 257 258 259 259 260 261 262 263 264 266 267 269 270 271 272 273 274 275 276 278 279 280 281 281 281 280 278 276 274 271 270 269 267 266 266 266 267 268 269 271 271 271 271 271 271 271 271 272 274 274 273 276 279 278 278 283 286 285 285 285 285 286 287 288 288 288 288 287 287 287
261 259 259 259 260 260 260 260 260 260 260 260 260 259 258 258 258 258 258 258 259 259 260 262 263 264 265 266 268 269 271 272 273 274 275 276 277 278 279 279 279 278 276 275 272 270 267 264 264 264 263 264 264 264 266 267 269 271 273 272 273 273 273 273 274 275 276 275 275 278 279 278 279 284 285 285 286 286 286 286 287 288 288 288 289 288 288 289
265 262 261 259 259 259 259 259 260 261 261 262 263 262 262 262 261 261 261 261 261 262 262 263 265 266 267 268 269 271 272 274 275 276 277 277 277 277 277 275 274 273 271 268 265 264 261 259 259 260 261 264 265 264 265 266 269 272 273 273 274 275 275 275 277 278 278 278 279 281 281 280 282 285 286 285 286 287 287 287 287 288 288 288 288 288 289 289
271 268 265 262 261 260 259 259 259 259 260 261 261 262 263 263 263 264 264 264 264 265 266 266 267 268 269 270 272 273 274 275 276 276 276 276 275 274 273 271 269 267 266 263 261 260 258 256 256 257 260 265 267 267 266 267 269 271 272 273 275 276 276 277 278 279 280 280 282 283 282 283 285 287 287 287 287 287 287 287 287 287 287 287 287 287 288 289
276 274 271 268 266 264 263 262 262 261 261 261 262 263 264 264 265 265 266 266 266 267 268 268 269 270 271 272 273 274 274 274 274 273 273 272 271 270 269 267 266 264 262 261 260 258 257 255 254 256 260 266 270 270 269 270 272 272 271 273 275 275 276 277 278 279 280 281 283 283 284 285 287 287 287 287 287 287 287 287 286 286 286 287 287 288 288 289
Height
10654 10658 10662 10666 10670 10676 10683 10693 10703 10711 10717 10723 10729 10734 10740 10746 10751 10756 10761 10766 10771 10776 10780 10783 10787 10791 10795 10797 10799 10801 10805 10810 10815 10819 10822 10826 10829 10832 10834 10835 10837 10838 10840 10840 10841 10842 10843 10844 10845 10845 10845 10844 10844 10843 10842 10841 10840 10838 10837 10835 10834 10832 10830 10828 10826 10824 10822 10819 10817 10814 10811 10807 10803 10799 10795 10792 10789 10786 10783 10781 10778 10776 10773 10770 10768 10765 10763 10760
10657 10661 10666 10670 10675 10681 10688 10698 10707 10714 10718 10724 10730 10737 10744 10749 10753 10758 10763 10768 10772 10776 10780 10783 10787 10791 10794 10797 10799 10802 10807 10812 10816 10820 10823 10826 10829 10830 10832 10834 10835 10837 10838 10838 10839 10840 10841 10842 10842 10842 10842 10842 10841 10841 10840 10838 10837 10836 10834 10833 10831 10829 10827 10826 10824 10822 10819 10817 10814 10811 10808 10805 10801 10797 10793 10790 10787 10785 10782 10780 10777 10775 10772 10769 10767 10764 10762 10759
10660 10664 10669 10675 10680 10687 10695 10703 10711 10716 10720 10726 10732 10740 10746 10750 10755 10760 10765 10769 10773 10776 10780 10783 10786 10790 10793 10797 10801 10805 10809 10813 10816 10820 10823 10825 10827 10829 10831 10832 10834 10835 10836 10837 10838 10839 10840 10840 10840 10840 10840 10839 10839 10838 10837 10836 10835 10833 10832 10830 10829 10827 10825 10823 10821 10819 10817 10814 10812 10809 10805 10802 10798 10795 10792 10789 10786 10784 10781 10779 10776 10774 10771 10769 10766 10763 10761 10758
10663 10667 10672 10678 10684 10691 10699 10706 10713 10718 10723 10729 10736 10742 10747 10752 10757 10762 10767 10770 10773 10776 10779 10783 10785 10789 10794 10799 10802 10806 10810 10813 10816 10819 10822 10824 10826 10827 10829 10831 10833 10834 10835 10836 10837 10838 10838 10838 10839 10838 10838 10837 10836 10835 10834 10833 10832 10831 10829 10828 10826 10824 10822 10820 10819 10817 10814 10812 10809 10806 10803 10799 10795 10793 10790 10788 10785 10783 10781 10778 10776 10773 10770 10768 10765 10763 10760 10758
10668 10672 10677 10682 10688 10696 10703 10709 10714 10720 10726 10733 10739 10744 10749 10754 10759 10764 10767 10770 10773 10776 10779 10783 10786 10791 10795 10799 10803 10807 10810 10813 10815 10818 10821 10823 10825 10826 10828 10830 10831 10833 10834 10834 10835 10836 10836 10836 10836 10836 10835 10834 10834 10833 10832 10831 10830 10828 10827 10825 10823 10821 10820 10818 10816 10814 10811 10809 10806 10803 10800 10796 10793 10791 10789 10787 10784 10782 10780 10777 10775 10772 10770 10768 10765 10763 10760 10757
10674 10679 10683 10688 10694 10701 10707 10712 10717 10723 10730 10736 10742 10747 10751 10757 10762 10766 10768 10771 10773 10777 10780 10784 10788 10792 10796 10800 10804 10807 10809 10812 10815 10817 10820 10822 10824 10826 10828 10829 10830 10832 10832 10833 10834 10834 10834 10834 10834 10833 10833 10832 10831 10830 10829 10828 10827 10826 10824 10822 10820 10819 10817 10815 10813 10811 10809 10806 10804 10800 10797 10794 10791 10789 10787 10785 10783 10781 10779 10777 10774 10772 10770 10767 10765 10762 10760 10757
10681 10686 10691 10696 10700 10706 10711 10716 10721 10727 10734 10740 10745 10749 10754 10759 10764 10767 10770 10772 10775 10778 10781 10785 10789 10793 10797 10801 10804 10807 10809 10812 10815 10817 10819 10821 10823 10825 10827 10828 10829 10830 10831 10831 10832 10832 10832 10832 10831 10831 10830 10829 10828 10827 10826 10825 10825 10823 10821 10819 10817 10816 10814 10812 10810 10808 10806 10804 10801 10797 10794 10792 10790 10788 10786 10784 10782 10780 10778 10776 10773 10771 10769 10766 10764 10761 10759 10757
10688 10693 10698 10702 10707 10712 10717 10721 10726 10732 10738 10743 10747 10752 10757 10761 10765 10768 10771 10773 10776 10779 10783 10787 10791 10794 10798 10801 10804 10807 10810 10812 10814 10817 10819 10821 10823 10824 10826 10827 10828 10829 10829 10830 10830 10830 10829 10829 10828 10828 10827 10826 10825 10824 10824 10823 10822 10820 10818 10816 10815 10813 10811 10809 10808 10806 10804 10801 10797 10794 10792 10790 10788 10786 10785 10783 10781 10779 10777 10774 10772 10770 10767 10765 10763 10761 10758 10756
10695 10699 10704 10709 10713 10717 10722 10726 10731 10736 10741 10746 10750 10754 10758 10762 10766 10769 10772 10774 10777 10781 10785 10789 10792 10795 10798 10801 10804 10807 10809 10812 10814 10816 10818 10820 10821 10823 10824 10825 10826 10827 10827 10827 10827 10827 10827 10826 10826 10825 10825 10824 10823 10822 10821 10820 10818 10817 10815 10813 10812 10810 10808 10806 10805 10803 10801 10797 10794 10792 10790 10788 10787 10785 10783 10782 10780 10777 10775 10773 10771 10769 10767 10765 10762 10760 10758 10756
10703 10706 10711 10714 10718 10722 10726 10731 10736 10740 10745 10749 10753 10756 10760 10763 10767 10769 10772 10775 10779 10783 10786 10789 10792 10795 10798 10801 10804 10806 10808 10811 10813 10815 10817 10818 10820 10821 10823 10824 10824 10825 10825 10825 10825 10824 10824 10824 10823 10823 10822 10821 10820 10818 10817 10816 10815 10814 10812 10810 10809 10807 10805 10804 10802 10800 10797 10794 10791 10789 10788 10786 10785 10783 10782 10780 10778 10776 10774 10772 10770 10768 10766 10764 10762 10760 10757 10755
10709 10713 10716 10719 10723 10727 10732 10736 10740 10744 10747 10751 10754 10758 10761 10764 10767 10770 10773 10776 10780 10783 10786 10789 10792 10795 10798 10801 10803 10805 10808 10810 10812 10814 10815 10817 10819 10820 10821 10822 10822 10822 10822 10822 10822 10822 10821 10821 10820 10820 10819 10818 10817 10815 10814 10814 10812 10811 10809 10808 10806 10804 10802 10801 10799 10796 10794 10791 10789 10787 10786 10785 10783 10782 10781 10779 10777 10775 10773 10771 10769 10767 10765 10763 10761 10758 10756 10753
10714 10718 10721 10724 10728 10732 10736 10740 10743 10747 10750 10753 10756 10759 10762 10765 10768 10771 10774 10777 10780 10783 10786 10789 10792 10795 10798 10800 10802 10804 10807 10809 10811 10813 10814 10816 10817 10818 10819 10820 10820 10820 10820 10820 10820 10819 10819 10818 10818 10817 10816 10815 10814 10813 10811 10810 10809 10808 10806 10804 10803 10801 10799 10797 10795 10793 10791 10788 10787 10785 10784 10783 10782 10781 10779 10777 10776 10774 10772 10770 10768 10766 10764 10762 10759 10757 10754 10752
10719 10722 10726 10729 10732 10736 10739 10742 10746 10749 10752 10755 10758 10761 10764 10765 10768 10771 10774 10777 10780 10783 10786 10789 10792 10795 10797 10799 10801 10804 10806 10808 10810 10812 10813 10815 10816 10817 10817 10818 10818 10818 10818 10818 10817 10817 10817 10816 10816 10815 10813 10812 10811 10809 10808 10807 10806 10804 10803 10801 10800 10798 10796 10794 10792 10790 10787 10786 10784 10783 10783 10782 10780 10779 10777 10776 10774 10772 10771 10768 10766 10764 10762 10760 10758 10756 10754 10751
10723 10726 10729 10732 10735 10739 10742 10745 10748 10751 10754 10757 10760 10763 10764 10765 10768 10771 10774 10777 10780 10783 10786 10789 10792 10794 10797 10799 10801 10803 10805 10807 10809 10811 10812 10814 10814 10815 10815 10816 10816 10816 10816 10816 10815 10815 10814 10814 10813 10812 10810 10809 10807 10806 10805 10804 10803 10801 10800 10798 10797 10795 10793 10791 10788 10786 10784 10783 10782 10781 10781 10780 10779 10777 10776 10774 10773 10771 10769 10767 10765 10763 10761 10759 10757 10755 10753 10751
10726 10729 10731 10734 10737 10740 10744 10747 10750 10753 10756 10758 10761 10763 10764 10766 10769 10772 10775 10778 10780 10783 10786 10789 10791 10794 10796 10798 10800 10802 10804 10806 10808 10810 10811 10812 10812 10813 10813 10813 10813 10813 10814 10813 10813 10812 10812 10811 10810 10808 10807 10805 10804 10802 10801 10800 10799 10798 10797 10795 10793 10792 10790 10787 10785 10783 10782 10781 10780 10779 10779 10778 10777 10775 10774 10772 10771 10769 10768 10766 10765 10763 10761 10759 10757 10754 10752 10750
10728 10731 10734 10736 10739 10742 10745 10749 10752 10754 10756 10758 10760 10762 10764 10767 10770 10773 10775 10778 10781 10783 10786 10788 10791 10793 10795 10798 10800 10802 10803 10805 10807 10809 10810 10810 10811 10811 10811 10811 10811 10811 10811 10811 10810 10809 10808 10807 10806 10805 10803 10802 10800 10799 10798 10797 10796 10795 10794 10792 10790 10788 10786 10784 10782 10780 10779 10778 10778 10777 10777 10776 10775 10773 10772 10770 10769 10768 10767 10765 10763 10762 10759 10758 10756 10753 10751 10748
10730 10733 10736 10738 10741 10743 10746 10749 10751 10754 10756 10758 10760 10762 10765 10768 10771 10773 10776 10778 10781 10783 10786 10788 10790 10793 10795 10797 10799 10801 10802 10804 10806 10807 10808 10808 10809 10809 10809 10808 10808 10808 10808 10808 10807 10806 10805 10804 10803 10802 10800 10798 10797 10796 10794 10793 10792 10791 10791 10789 10787 10785 10783 10781 10779 10778 10777 10776 10776 10775 10775 10774 10773 10772 10770 10769 10768 10767 10765 10763 10762 10760 10758 10756 10754 10752 10750 10747
10733 10735 10737 10740 10742 10744 10746 10749 10751 10754 10756 10759 10761 10764 10766 10769 10772 10774 10776 10779 10781 10783 10785 10788 10790 10792 10794 10796 10798 10800 10802 10803 10804 10805 10806 10806 10806 10807 10806 10806 10806 10806 10805 10805 10804 10803 10802 10801 10800 10799 10797 10795 10794 10792 10791 10790 10789 10788 10787 10786 10783 10782 10780 10778 10776 10775 10774 10774 10774 10773 10773 10772 10771 10770 10769 10767 10766 10765 10763 10762 10760 10758 10756 10754 10752 10750 10748 10746
10735 10737 10739 10741 10743 10745 10748 10751 10753 10755 10757 10760 10762 10765 10767 10770 10772 10774 10777 10779 10781 10783 10785 10787 10789 10791 10794 10796 10798 10799 10800 10801 10802 10803 10804 10804 10804 10804 10804 10804 10804 10804 10803 10803 10802 10801 10800 10799 10798 10796 10794 10792 10790 10789 10788 10787 10786 10785 10783 10782 10780 10778 10777 10775 10774 10773 10772 10772 10771 10771 10771 10770 10769 10768 10767 10766 10764 10763 10761 10759 10758 10756 10754 10752 10750 10748 10746 10744
10737 10739 10741 10742 10744 10747 10750 10752 10755 10757 10759 10762 10764 10766 10768 10770 10772 10775 10777 10779 10781 10783 10784 10786 10788 10790 10793 10794 10796 10797 10799 10799 10800 10801 10801 10802 10802 10802 10802 10802 10802 10801 10801 10800 10799 10798 10797 10796 10795 10793 10791 10788 10786 10785 10784 10783 10782 10781 10780 10778 10776 10775 10774 10772 10771 10770 10770 10769 10769 10769 10769 10768 10767 10766 10765 10763 10762 10760 10759 10757 10756 10754 10752 10750 10749 10747 10745 10743
10739 10741 10743 10745 10747 10749 10751 10754 10756 10758 10760 10762 10764 10767 10769 10771 10773 10775 10777 10778 10780 10782 10784 10785 10787 10789 10791 10793 10794 10796 10797 10798 10798 10799 10799 10799 10799 10799 10799 10799 10799 10798 10797 10797 10796 10795 10794 10793 10791 10789 10787 10785 10783 10782 10781 10780 10779 10777 10776 10774 10773 10771 10770 10770 10769 10768 10767 10767 10767 10766 10766 10766 10765 10764 10763 10761 10760 10758 10757 10755 10754 10752 10750 10748 10747 10745 10743 10741
10740 10742 10744 10746 10748 10750 10752 10755 10757 10759 10761 10763 10765 10767 10769 10771 10772 10774 10776 10777 10779 10781 10782 10784 10786 10788 10790 10791 10793 10794 10795 10796 10796 10796 10796 10796 10796 10796 10796 10796 10795 10795 10794 10794 10793 10792 10791 10789 10788 10786 10784 10782 10780 10778 10778 10777 10775 10774 10772 10771 10770 10768 10767 10767 10766 10765 10765 10765 10764 10764 10764 10763 10762 10761 10760 10759 10758 10756 10755 10753 10752 10750 10748 10747 10745 10743 10741 10739
10741 10743 10745 10747 10749 10751 10753 10755 10757 10759 10761 10763 10765 10767 10768 10770 10772 10773 10775 10776 10778 10780 10781 10783 10785 10787 10788 10789 10791 10792 10792 10793 10793 10793 10793 10793 10793 10793 10793 10793 10792 10792 10791 10791 10790 10789 10787 10786 10785 10783 10781 10779 10777 10775 10774 10773 10772 10770 10769 10768 10767 10766 10765 10764 10763 10763 10763 10762 10762 10761 10761 10761 10760 10759 10758 10757 10756 10754 10753 10751 10750 10748 10746 10744 10743 10741 10739 10737
10740 10742 10744 10746 10748 10750 10752 10754 10756 10759 10760 10762 10764 10766 10768 10769 10771 10772 10773 10775 10777 10779 10780 10782 10784 10785 10786 10787 10788 10789 10789 10789 10790 10790 10790 10790 10790 10790 10790 10790 10789 10789 10788 10787 10786 10785 10784 10783 10782 10780 10778 10776 10774 10772 10771 10770 10768 10767 10766 10765 10764 10763 10762 10761 10761 10760 10760 10760 10759 10759 10758 10758 10757 10757 10756 10755 10754 10752 10750 10749 10748 10746 10744 10742 10740 10738 10737 10735
10740 10742 10744 10746 10748 10750 10752 10754 10756 10758 10759 10761 10763 10765 10766 10768 10770 10771 10772 10774 10776 10777 10779 10780 10782 10783 10784 10785 10785 10786 10786 10786 10787 10787 10787 10787 10787 10787 10787 10786 10786 10785 10785 10784 10783 10782 10781 10780 10779 10777 10776 10773 10771 10769 10768 10766 10765 10763 10762 10761 10761 10760 10759 10759 10758 10758 10757 10757 10756 10756 10756 10755 10754 10754 10753 10752 10751 10750 10748 10747 10745 10744 10742 10740 10738 10736 10735 10733
10740 10742 10743 10745 10747 10749 10751 10753 10755 10756 10758 10760 10761 10763 10765 10766 10768 10769 10771 10773 10774 10776 10777 10778 10779 10780 10781 10782 10782 10783 10783 10783 10783 10784 10784 10784 10784 10784 10784 10783 10783 10782 10781 10780 10780 10779 10778 10777 10776 10774 10772 10770 10768 10766 10765 10763 10761 10760 10759 10758 10758 10757 10757 10756 10756 10755 10755 10754 10754 10753 10753 10752 10751 10751 10750 10750 10748 10747 10745 10744 10743 10741 10740 10738 10736 10734 10733 10731
10740 10742 10744 10745 10747 10749 10750 10752 10753 10755 10757 10759 10760 10762 10763 10765 10766 10768 10770 10771 10772 10774 10775 10776 10777 10778 10779 10780 10779 10780 10780 10780 10780 10781 10781 10781 10781 10781 10780 10780 10779 10778 10778 10777 10776 10776 10775 10774 10772 10771 10769 10767 10765 10763 10761 10760 10758 10757 10756 10755 10755 10754 10754 10753 10753 10752 10752 10751 10751 10750 10750 10749 10748 10748 10748 10747 10746 10744 10743 10741 10740 10738 10737 10735 10733 10731 10730 10728
10740 10741 10743 10745 10746 10748 10750 10751 10753 10755 10757 10758 10759 10761 10762 10763 10765 10766 10768 10769 10770 10771 10773 10774 10775 10775 10777 10777 10777 10777 10777 10777 10778 10778 10778 10778 10778 10778 10777 10776 10776 10775 10774 10774 10773 10772 10771 10770 10769 10767 10766 10763 10761 10759 10758 10756 10755 10754 10753 10752 10752 10751 10751 10750 10750 10749 10749 10748 10748 10747 10747 10746 10745 10745 10745 10744 10743 10741 10740 10738 10737 10736 10734 10732 10731 10729 10727 10726
10740 10741 10742 10744 10746 10748 10749 10750 10752 10754 10756 10757 10758 10759 10761 10762 10763 10765 10765 10766 10767 10769 10770 10771 10772 10773 10773 10773 10773 10774 10774 10774 10775 10775 10775 10775 10775 10774 10774 10773 10773 10772 10771 10771 10770 10769 10768 10767 10765 10764 10762 10759 10757 10755 10754 10753 10751 10751 10750 10749 10749 10748 10748 10747 10747 10746 10745 10745 10744 10744 10744 10743 10742 10742 10741 10741 10740 10738 10737 10735 10734 10733 10732 10730 10728 10727 10725 10724
10739 10740 10742 10743 10745 10747 10748 10749 10750 10752 10753 10755 10756 10757 10758 10759 10760 10762 10762 10763 10764 10766 10767 10767 10768 10769 10769 10770 10770 10770 10771 10771 10771 10772 10772 10772 10771 10771 10771 10770 10769 10769 10768 10767 10766 10765 10764 10763 10762 10760 10758 10755 10753 10752 10750 10749 10748 10747 10747 10746 10745 10745 10745 10744 10744 10743 10742 10742 10741 10741 10741 10740 10739 10738 10738 10738 10737 10735 10734 10732 10731 10730 10729 10728 10726 10724 10723 10721
10737 10739 10741 10742 10744 10745 10746 10747 10748 10749 10751 10752 10753 10754 10755 10756 10758 10758 10759 10760 10761 10763 10764 10764 10765 10766 10766 10766 10767 10767 10767 10768 10768 10768 10768 10768 10768 10768 10767 10767 10766 10765 10764 10764 10763 10762 10761 10759 10758 10756 10754 10752 10750 10748 10746 10745 10745 10744 10743 10743 10742 10742 10741 10741 10740 10740 10739 10739 10738 10738 10737 10737 10736 10735 10734 10734 10733 10732 10731 10729 10728 10727 10726 10725 10723 10722 10720 10718
10735 10737 10739 10741 10742 10743 10744 10745 10746 10747 10749 10750 10751 10752 10753 10754 10755 10756 10756 10757 10759 10759 10760 10761 10762 10762 10763 10763 10763 10763 10764 10764 10765 10765 10765 10765 10765 10764 10764 10763 10762 10762 10761 10760 10759 10758 10757 10755 10754 10752 10750 10748 10746 10744 10743 10742 10741 10740 10740 10739 10739 10738 10738 10737 10737 10736 10736 10735 10735 10734 10734 10734 10733 10732 10731 10730 10730 10729 10728 10726 10725 10724 10723 10721 10720 10718 10716 10715
10733 10734 10736 10738 10740 10741 10742 10743 10744 10746 10747 10748 10749 10750 10751 10751 10752 10752 10753 10754 10756 10756 10757 10758 10758 10759 10759 10759 10759 10760 10760 10761 10761 10761 10761 10761 10761 10761 10760 10759 10759 10758 10757 10756 10755 10754 10753 10751 10750 10749 10747 10745 10743 10741 10739 10738 10738 10737 10736 10736 10735 10735 10735 10734 10733 10733 10732 10732 10731 10731 10730 10730 10729 10728 10728 10727 10726 10725 10724 10723 10721 10720 10719 10718 10717 10715 10713 10711
10731 10732 10734 10735 10737 10738 10739 10741 10742 10743 10744 10745 10746 10747 10748 10748 10749 10749 10750 10751 10752 10753 10754 10754 10755 10755 10755 10755 10756 10756 10756 10757 10757 10758 10758 10758 10757 10757 10756 10756 10755 10754 10753 10752 10751 10750 10749 10747 10746 10745 10743 10741 10739 10737 10736 10735 10734 10733 10733 10732 10732 10731 10731 10730 10730 10729 10729 10728 10728 10727 10727 10726 10726 10725 10724 10723 10722 10721 10721 10719 10718 10717 10716 10715 10713 10711 10709 10707
10727 10729 10731 10732 10734 10735 10737 10738 10739 10740 10741 10742 10743 10744 10745 10745 10746 10746 10747 10748 10749 10750 10750 10751 10751 10752 10752 10752 10752 10752 10753 10753 10753 10754 10754 10753 10753 10753 10752 10752 10751 10750 10749 10748 10747 10746 10745 10743 10742 10741 10739 10738 10736 10734 10733 10732 10731 10730 10729 10729 10728 10728 10727 10727 10726 10726 10725 10724 10724 10724 10723 10723 10722 10721 10720 10719 10719 10718 10717 10716 10715 10713 10712 10711 10709 10707 10705 10704
10724 10726 10727 10729 10731 10732 10734 10735 10736 10737 10738 10739 10740 10741 10741 10742 10742 10743 10743 10744 10745 10746 10747 10747 10747 10747 10747 10748 10748 10748 10748 10749 10749 10749 10749 10749 10749 10748 10748 10747 10746 10745 10744 10744 10743 10742 10741 10739 10738 10737 10735 10734 10732 10730 10729 10728 10727 10726 10726 10725 10724 10724 10724 10724 10723 10722 10722 10721 10720 10720 10720 10719 10718 10717 10716 10716 10715 10714 10713 10713 10711 10710 10708 10708 10706 10703 10701 10700
10721 10722 10724 10725 10727 10729 10730 10732 10733 10734 10735 10736 10736 10737 10738 10738 10738 10739 10740 10740 10741 10742 10742 10742 10743 10743 10743 10743 10743 10744 10744 10744 10744 10744 10745 10745 10744 10744 10743 10742 10742 10741 10740 10739 10738 10737 10736 10735 10733 10732 10731 10729 10728 10727 10725 10724 10724 10723 10722 10721 10721 10720 10720 10720 10719 10719 10718 10717 10716 10715 10716 10716 10715 10714 10713 10712 10711 10710 10709 10709 10707 10706 10704 10703 10702 10700 10698 10696
10717 10718 10720 10721 10723 10725 10726 10727 10729 10730 10732 10733 10733 10734 10734 10735 10735 10735 10736 10736 10736 10738 10738 10738 10738 10738 10739 10739 10739 10739 10740 10740 10740 10740 10740 10740 10739 10739 10738 10738 10737 10736 10735 10734 10733 10732 10732 10730 10729 10728 10727 10725 10724 10723 10721 10720 10720 10719 10718 10717 10717 10716 10716 10716 10715 10715 10714 10713 10712 10711 10711 10711 10711 10711 10710 10709 10708 10706 10706 10705 10703 10701 10700 10699 10697 10695 10694 10692
10713 10715 10716 10717 10719 10721 10722 10723 10725 10726 10727 10729 10729 10730 10730 10731 10731 10732 10732 10732 10732 10733 10733 10734 10734 10734 10735 10735 10735 10736 10736 10736 10736 10736 10736 10735 10735 10734 10734 10733 10732 10731 10730 10729 10728 10727 10727 10726 10725 10724 10723 10721 10719 10718 10717 10716 10715 10715 10714 10713 10713 10712 10712 10711 10711 10711 10710 10710 10708 10707 10707 10707 10706 10706 10707 10706 10704 10703 10702 10701 10699 10697 10696 10694 10693 10691 10689 10687
10709 10711 10712 10713 10715 10717 10718 10719 10720 10722 10723 10724 10725 10726 10726 10727 10728 10728 10728 10728 10728 10728 10729 10729 10729 10730 10730 10731 10731 10731 10731 10731 10731 10731 10731 10731 10730 10729 10729 10728 10727 10726 10725 10724 10723 10722 10721 10721 10720 10719 10718 10717 10715 10714 10713 10712 10711 10710 10710 10709 10708 10708 10707 10707 10706 10706 10706 10705 10705 10703 10702 10702 10701 10702 10703 10702 10700 10699 10698 10697 10695 10693 10691 10689 10688 10687 10685 10683
10705 10707 10708 10709 10711 10712 10713 10715 10716 10717 10718 10719 10720 10721 10722 10723 10724 10724 10724 10724 10724 10724 10725 10725 10725 10726 10726 10727 10727 10727 10727 10727 10726 10726 10726 10726 10725 10724 10724 10723 10722 10721 10720 10719 10718 10717 10716 10716 10715 10714 10713 10712 10710 10709 10708 10707 10707 10706 10705 10704 10704 10703 10703 10702 10702 10701 10701 10701 10700 10699 10697 10697 10698 10698 10698 10697 10696 10695 10694 10692 10691 10688 10686 10685 10683 10682 10680 10677
10700 10702 10703 10704 10706 10707 10708 10710 10711 10712 10713 10714 10715 10716 10717 10718 10719 10719 10719 10720 10720 10720 10721 10721 10721 10721 10722 10722 10722 10722 10721 10721 10721 10721 10721 10720 10720 10719 10718 10718 10717 10716 10715 10713 10712 10711 10711 10710 10709 10709 10708 10707 10706 10704 10703 10703 10702 10701 10701 10700 10700 10699 10698 10698 10697 10696 10697 10696 10696 10694 10690 10692 10696 10694 10692 10691 10690 10690 10689 10687 10686 10684 10681 10680 10678 10676 10674 10672
10695 10697 10698 10699 10700 10701 10703 10704 10706 10707 10708 10709 10710 10711 10711 10712 10713 10714 10714 10715 10715 10716 10716 10716 10716 10716 10716 10716 10716 10716 10716 10716 10715 10715 10715 10715 10714 10713 10713 10712 10711 10710 10709 10708 10707 10706 10705 10704 10703 10703 10702 10702 10701 10699 10698 10698 10697 10697 10696 10695 10695 10694 10693 10693 10692 10691 10691 10691 10692 10688 10684 10687 10693 10691 10688 10687 10684 10683 10683 10682 10681 10679 10676 10675 10673 10671 10669 10667
10691 10692 10693 10694 10695 10696 10697 10698 10700 10701 10702 10703 10704 10705 10706 10707 10708 10708 10709 10710 10710 10710 10710 10710 10711 10711 10710 10711 10711 10710 10710 10710 10709 10709 10710 10709 10708 10708 10707 10706 10706 10705 10704 10703 10701 10700 10699 10698 10697 10697 10696 10696 10696 10694 10693 10692 10692 10692 10691 10691 10690 10689 10689 10688 10687 10687 10686 10685 10686 10683 10679 10681 10686 10686 10685 10683 10680 10678 10678 10676 10675 10674 10672 10670 10669 10667 10664 10662
10687 10688 10689 10690 10690 10691 10692 10693 10694 10695 10696 10697 10698 10699 10700 10701 10702 10703 10703 10704 10704 10705 10705 10705 10705 10705 10705 10705 10705 10704 10704 10704 10704 10704 10704 10703 10702 10702 10701 10700 10699 10698 10698 10697 10695 10695 10693 10691 10691 10691 10690 10690 10690 10689 10689 10688 10686 10686 10686 10686 10685 10685 10684 10683 10682 10682 10681 10680 10679 10676 10676 10675 10675 10680 10682 10679 10675 10674 10672 10671 10670 10668 10667 10666 10664 10662 10659 10657
10682 10683 10684 10685 10686 10687 10687 10688 10689 10690 10691 10692 10693 10694 10695 10696 10696 10697 10697 10698 10698 10699 10699 10699 10700 10700 10699 10699 10699 10698 10698 10698 10698 10697 10697 10697 10696 10695 10694 10693 10692 10692 10691 10690 10689 10688 10687 10685 10685 10685 10684 10685 10684 10683 10684 10683 10682 10681 10680 10680 10680 10680 10679 10678 10677 10676 10676 10677 10672 10669 10673 10670 10664 10669 10677 10675 10671 10669 10667 10665 10664 10662 10662 10661 10658 10656 10654 10651
10677 10678 10679 10680 10681 10682 10683 10684 10685 10685 10686 10687 10688 10689 10690 10690 10691 10691 10692 10692 10693 10693 10693 10693 10694 10694 10693 10693 10693 10692 10692 10692 10691 10690 10690 10690 10689 10688 10687 10686 10685 10685 10683 10682 10682 10681 10680 10678 10678 10679 10679 10679 10679 10678 10678 10678 10677 10675 10674 10674 10674 10674 10674 10673 10672 10670 10672 10673 10666 10663 10668 10665 10657 10660 10667 10667 10666 10665 10662 10660 10657 10656 10656 10654 10652 10650 10647 10645
10672 10673 10674 10675 10676 10677 10678 10679 10680 10681 10682 10683 10683 10684 10685 10685 10685 10686 10686 10687 10687 10687 10687 10687 10688 10688 10687 10687 10687 10686 10685 10685 10684 10683 10683 10682 10681 10681 10680 10678 10678 10676 10675 10675 10674 10673 10674 10672 10671 10672 10673 10673 10674 10673 10673 10672 10671 10670 10668 10667 10667 10668 10668 10667 10666 10665 10667 10667 10662 10659 10662 10658 10653 10656 10658 10657 10658 10658 10656 10654 10651 10649 10649 10647 10645 10642 10639 10638
10668 10668 10669 10671 10671 10672 10673 10674 10675 10676 10677 10677 10678 10679 10679 10680 10680 10680 10681 10681 10681 10681 10682 10681 10681 10681 10681 10681 10680 10679 10678 10678 10677 10675 10675 10674 10674 10673 10672 10670 10669 10668 10667 10667 10665 10666 10667 10666 10665 10667 10667 10667 10668 10669 10668 10667 10667 10665 10662 10660 10661 10662 10662 10661 10659 10659 10661 10661 10657 10657 10657 10651 10648 10653 10652 10649 10650 10650 10648 10647 10644 10642 10641 10639 10637 10633 10631 10629
10663 10664 10664 10666 10666 10667 10668 10669 10670 10670 10671 10672 10672 10673 10674 10674 10674 10674 10675 10675 10675 10675 10675 10675 10675 10675 10674 10673 10673 10672 10671 10671 10669 10667 10666 10665 10664 10664 10663 10661 10660 10660 10659 10659 10658 10658 10660 10660 10659 10661 10662 10662 10661 10663 10664 10663 10663 10661 10656 10653 10655 10656 10654 10654 10653 10653 10654 10654 10652 10652 10651 10645 10643 10648 10646 10643 10642 10641 10640 10639 10637 10635 10633 10631 10628 10625 10623 10621
10659 10660 10660 10661 10661 10662 10662 10663 10664 10664 10665 10666 10666 10666 10667 10668 10668 10668 10668 10669 10668 10668 10668 10668 10668 10668 10667 10666 10665 10664 10663 10662 10661 10659 10657 10656 10655 10655 10654 10653 10652 10653 10652 10652 10652 10652 10654 10655 10654 10656 10658 10656 10654 10657 10658 10658 10660 10658 10651 10648 10649 10649 10648 10647 10647 10646 10646 10647 10646 10645 10643 10638 10638 10640 10639 10636 10635 10633 10632 10631 10629 10627 10624 10622 10620 10618 10616 10614
10656 10656 10656 10656 10656 10657 10657 10657 10658 10658 10659 10659 10660 10660 10661 10661 10661 10661 10661 10661 10661 10661 10661 10661 10660 10659 10659 10658 10656 10656 10655 10654 10652 10651 10649 10648 10648 10647 10647 10647 10646 10646 10646 10646 10647 10647 10648 10650 10649 10651 10654 10651 10649 10650 10651 10653 10655 10652 10646 10644 10643 10642 10642 10642 10641 10640 10640 10640 10640 10638 10635 10633 10632 10632 10630 10628 10628 10626 10625 10623 10621 10618 10616 10614 10612 10610 10608 10606